Regional Weather Roundup
Issued by NWS

Current Version | Previous Version | Text Only | Print | Product List | Glossary On
Versions: 1 2 3 4 5 6 7 8 9 10 11 12 13 14 15 16 17 18 19 20 21 22 23 24 25 26 27
000
ASCA42 TJSJ 301810
RWRPR
PUERTO RICO/U.S. VIRGIN ISLANDS HOURLY WEATHER ROUNDUP
NATIONAL WEATHER SERVICE SAN JUAN PR
200 PM AST FRI SEP 30 2016

PRZ001>002-007>008-010-301900-
PUERTO RICO

CITY           SKY/WX    TMP DP  RH WIND       PRES   REMARKS
SAN JUAN LMM   PTSUNNY   86  77  74 E16       29.88F HX  97
CEIBA          PTSUNNY   84  77  79 NE12G17   29.91F HX  94
$$

VIZ001>002-301900-
U.S. VIRGIN ISLANDS

CITY           SKY/WX    TMP DP  RH WIND       PRES   REMARKS
CHARLOTTE AMA  SUNNY     90  75  62 NE15G24   29.86F HX 100
CHRISTIANSTED  PTSUNNY   86  75  70 E17       29.88F HX  95
$$

HOURLY WEATHER ROUNDUP FOR THE NEWS MEDIA

CITY           SKY/WX    TMP DP  RH WIND       PRES   REMARKS
ORLANDO        MOSUNNY   87  72  60 SE9       30.01F HX  93
NEW YORK       LGT RAIN  61  58  90 NE21G29   30.25F FOG
NEWARK         LGT RAIN  59  57  93 N14       30.27F FOG
CHICAGO        CLOUDY    64  59  83 NE12      30.12F
HARTFORD       LGT RAIN  62  53  72 NE15G23   30.37F
BOSTON         CLOUDY    59  51  75 NE18      30.44F
DALLAS         MOSUNNY   78  49  35 NW3       30.19F
PHILADELPHIA   DRIZZLE   62  60  93 NE14      30.20F FOG
LOS ANGELES    MOSUNNY   78  60  53 W8        30.04S
WASHINGTON DC  CLOUDY    63  59  87 NE10      30.15F



USA.gov is the U.S. government's official web portal to all federal, state and local government web resources and services.